User: anonymous   Login
Location: Unspecified
(0.0000°N, 0.0000°E)
Time: 03:41:20
(UTC+00:00)
Language:

ATEX - Orbit

View from above orbital plane
View from above orbital plane
View from above satellite
View from above satellite

Ground track
Ground track

The orbit data is extracted from the following two-line orbital elements,

1 25489U 98055A   15271.85594729 0.00000600  00000-0  15981-3 0    06
2 25489  84.9825 147.0087 0010000 306.5317  53.4682 14.48576876    03
Epoch (UTC): 28 September 2015 20:32:33
Eccentricity: 0.0010000
inclination: 84.9825°
perigee height: 723 km
apogee height: 737 km
right ascension of ascending node: 147.0087°
argument of perigee: 306.5317°
revolutions per day: 14.48576876
mean anomaly at epoch: 53.4682°
orbit number at epoch: 0

The dashed part of the orbit path shows where the satellite is in the earth's shadow,  

DLR